Year,Month,Day,Hour,Minute,Value (Times are PST for temperature in C)
2012,01,18,00,00,-3.70
2012,01,18,00,01,-3.70
2012,01,18,00,02,-3.70
2012,01,18,00,03,-3.70
2012,01,18,00,04,-3.70
2012,01,18,00,05,-3.80
2012,01,18,00,06,-3.80
2012,01,18,00,07,-3.80
2012,01,18,00,08,-3.80
2012,01,18,00,09,-3.80
2012,01,18,00,10,-3.80
2012,01,18,00,11,-3.80
2012,01,18,00,12,-3.80
2012,01,18,00,13,-3.80
2012,01,18,00,14,-3.80
2012,01,18,00,15,-3.80
2012,01,18,00,16,-3.80
2012,01,18,00,17,-3.80
2012,01,18,00,18,-3.70
2012,01,18,00,19,-3.70
2012,01,18,00,20,-3.60
2012,01,18,00,21,-3.60
2012,01,18,00,22,-3.50
2012,01,18,00,23,-3.40
2012,01,18,00,24,-3.40
2012,01,18,00,25,-3.30
2012,01,18,00,26,-3.30
2012,01,18,00,27,-3.30
2012,01,18,00,28,-3.20
2012,01,18,00,29,-3.20
2012,01,18,00,30,-3.20
2012,01,18,00,31,-3.20
2012,01,18,00,32,-3.20
2012,01,18,00,33,-3.20
2012,01,18,00,34,-3.20
2012,01,18,00,35,-3.20
2012,01,18,00,36,-3.20
2012,01,18,00,37,-3.20
2012,01,18,00,38,-3.20
2012,01,18,00,39,-3.20
2012,01,18,00,40,-3.20
2012,01,18,00,41,-3.10
2012,01,18,00,42,-3.10
2012,01,18,00,43,-3.10
2012,01,18,00,44,-3.00
2012,01,18,00,45,-3.00
2012,01,18,00,46,-2.90
2012,01,18,00,47,-2.90
2012,01,18,00,48,-2.80
2012,01,18,00,49,-2.80
2012,01,18,00,50,-2.80
2012,01,18,00,51,-2.70
2012,01,18,00,52,-2.70
2012,01,18,00,53,-2.70
2012,01,18,00,54,-2.70
2012,01,18,00,55,-2.60
2012,01,18,00,56,-2.60
2012,01,18,00,57,-2.50
2012,01,18,00,58,-2.50
2012,01,18,00,59,-2.50
2012,01,18,01,00,-2.40
2012,01,18,01,01,-2.40
2012,01,18,01,02,-2.30
2012,01,18,01,03,-2.30
2012,01,18,01,04,-2.20
2012,01,18,01,05,-2.20
2012,01,18,01,06,-2.10
2012,01,18,01,07,-2.00
2012,01,18,01,08,-1.90
2012,01,18,01,09,-1.80
2012,01,18,01,10,-1.80
2012,01,18,01,11,-1.70
2012,01,18,01,12,-1.70
2012,01,18,01,13,-1.70
2012,01,18,01,14,-1.70
2012,01,18,01,15,-1.60
2012,01,18,01,16,-1.60
2012,01,18,01,17,-1.60
2012,01,18,01,18,-1.60
2012,01,18,01,19,-1.50
2012,01,18,01,20,-1.50
2012,01,18,01,21,-1.50
2012,01,18,01,22,-1.40
2012,01,18,01,23,-1.40
2012,01,18,01,24,-1.40
2012,01,18,01,25,-1.40
2012,01,18,01,26,-1.40
2012,01,18,01,27,-1.30
2012,01,18,01,28,-1.30
2012,01,18,01,29,-1.30
2012,01,18,01,30,-1.30
2012,01,18,01,31,-1.30
2012,01,18,01,32,-1.30
2012,01,18,01,33,-1.20
2012,01,18,01,34,-1.20
2012,01,18,01,35,-1.10
2012,01,18,01,36,-1.10
2012,01,18,01,37,-1.00
2012,01,18,01,38,-1.00
2012,01,18,01,39,-0.90
2012,01,18,01,40,-0.90
2012,01,18,01,41,-0.80
2012,01,18,01,42,-0.80
2012,01,18,01,43,-0.80
2012,01,18,01,44,-0.80
2012,01,18,01,45,-0.80
2012,01,18,01,46,-0.80
2012,01,18,01,47,-0.80
2012,01,18,01,48,-0.80
2012,01,18,01,49,-0.80
2012,01,18,01,50,-0.80
2012,01,18,01,51,-0.80
2012,01,18,01,52,-0.80
2012,01,18,01,53,-0.80
2012,01,18,01,54,-0.80
2012,01,18,01,55,-0.80
2012,01,18,01,56,-0.80
2012,01,18,01,57,-0.80
2012,01,18,01,58,-0.80
2012,01,18,01,59,-0.80
2012,01,18,02,00,-0.80
2012,01,18,02,01,-0.80
2012,01,18,02,02,-0.80
2012,01,18,02,03,-0.80
2012,01,18,02,04,-0.80
2012,01,18,02,05,-0.80
2012,01,18,02,06,-0.80
2012,01,18,02,07,-0.80
2012,01,18,02,08,-0.80
2012,01,18,02,09,-0.80
2012,01,18,02,10,-0.80
2012,01,18,02,11,-0.80
2012,01,18,02,12,-0.80
2012,01,18,02,13,-0.80
2012,01,18,02,14,-0.80
2012,01,18,02,15,-0.80
2012,01,18,02,16,-0.80
2012,01,18,02,17,-0.80
2012,01,18,02,18,-0.70
2012,01,18,02,19,-0.70
2012,01,18,02,20,-0.70
2012,01,18,02,21,-0.70
2012,01,18,02,22,-0.70
2012,01,18,02,23,-0.70
2012,01,18,02,24,-0.70
2012,01,18,02,25,-0.60
2012,01,18,02,26,-0.60
2012,01,18,02,27,-0.60
2012,01,18,02,28,-0.60
2012,01,18,02,29,-0.60
2012,01,18,02,30,-0.60
2012,01,18,02,31,-0.60
2012,01,18,02,32,-0.60
2012,01,18,02,33,-0.60
2012,01,18,02,34,-0.60
2012,01,18,02,35,-0.60
2012,01,18,02,36,-0.60
2012,01,18,02,37,-0.60
2012,01,18,02,38,-0.60
2012,01,18,02,39,-0.60
2012,01,18,02,40,-0.60
2012,01,18,02,41,-0.60
2012,01,18,02,42,-0.60
2012,01,18,02,43,-0.60
2012,01,18,02,44,-0.60
2012,01,18,02,45,-0.60
2012,01,18,02,46,-0.60
2012,01,18,02,47,-0.60
2012,01,18,02,48,-0.50
2012,01,18,02,49,-0.50
2012,01,18,02,50,-0.50
2012,01,18,02,51,-0.50
2012,01,18,02,52,-0.50
2012,01,18,02,53,-0.50
2012,01,18,02,54,-0.50
2012,01,18,02,55,-0.50
2012,01,18,02,56,-0.40
2012,01,18,02,57,-0.40
2012,01,18,02,58,-0.40
2012,01,18,02,59,-0.40
2012,01,18,03,00,-0.40
2012,01,18,03,01,-0.40
2012,01,18,03,02,-0.40
2012,01,18,03,03,-0.40
2012,01,18,03,04,-0.40
2012,01,18,03,05,-0.40
2012,01,18,03,06,-0.40
2012,01,18,03,07,-0.40
2012,01,18,03,08,-0.40
2012,01,18,03,09,-0.40
2012,01,18,03,10,-0.40
2012,01,18,03,11,-0.40
2012,01,18,03,12,-0.40
2012,01,18,03,13,-0.40
2012,01,18,03,14,-0.30
2012,01,18,03,15,-0.30
2012,01,18,03,16,-0.30
2012,01,18,03,17,-0.30
2012,01,18,03,18,-0.30
2012,01,18,03,19,-0.30
2012,01,18,03,20,-0.30
2012,01,18,03,21,-0.30
2012,01,18,03,22,-0.30
2012,01,18,03,23,-0.30
2012,01,18,03,24,-0.30
2012,01,18,03,25,-0.30
2012,01,18,03,26,-0.30
2012,01,18,03,27,-0.30
2012,01,18,03,28,-0.30
2012,01,18,03,29,-0.30
2012,01,18,03,30,-0.30
2012,01,18,03,31,-0.30
2012,01,18,03,32,-0.30
2012,01,18,03,33,-0.30
2012,01,18,03,34,-0.30
2012,01,18,03,35,-0.30
2012,01,18,03,36,-0.30
2012,01,18,03,37,-0.30
2012,01,18,03,38,-0.30
2012,01,18,03,39,-0.30
2012,01,18,03,40,-0.30
2012,01,18,03,41,-0.30
2012,01,18,03,42,-0.30
2012,01,18,03,43,-0.30
2012,01,18,03,44,-0.30
2012,01,18,03,45,-0.30
2012,01,18,03,46,-0.40
2012,01,18,03,47,-0.40
2012,01,18,03,48,-0.40
2012,01,18,03,49,-0.40
2012,01,18,03,50,-0.40
2012,01,18,03,51,-0.40
2012,01,18,03,52,-0.40
2012,01,18,03,53,-0.40
2012,01,18,03,54,-0.40
2012,01,18,03,55,-0.40
2012,01,18,03,56,-0.40
2012,01,18,03,57,-0.40
2012,01,18,03,58,-0.40
2012,01,18,03,59,-0.50
2012,01,18,04,00,-0.50
2012,01,18,04,01,-0.50
2012,01,18,04,02,-0.50
2012,01,18,04,03,-0.60
2012,01,18,04,04,-0.60
2012,01,18,04,05,-0.60
2012,01,18,04,06,-0.70
2012,01,18,04,07,-0.70
2012,01,18,04,08,-0.70
2012,01,18,04,09,-0.70
2012,01,18,04,10,-0.70
2012,01,18,04,11,-0.80
2012,01,18,04,12,-0.80
2012,01,18,04,13,-0.80
2012,01,18,04,14,-0.80
2012,01,18,04,15,-0.80
2012,01,18,04,16,-0.80
2012,01,18,04,17,-0.80
2012,01,18,04,18,-0.80
2012,01,18,04,19,-0.80
2012,01,18,04,20,-0.80
2012,01,18,04,21,-0.80
2012,01,18,04,22,-0.90
2012,01,18,04,23,-0.90
2012,01,18,04,24,-0.90
2012,01,18,04,25,-0.90
2012,01,18,04,26,-1.00
2012,01,18,04,27,-1.00
2012,01,18,04,28,-1.00
2012,01,18,04,29,-1.00
2012,01,18,04,30,-1.10
2012,01,18,04,31,-1.10
2012,01,18,04,32,-1.10
2012,01,18,04,33,-1.10
2012,01,18,04,34,-1.10
2012,01,18,04,35,-1.10
2012,01,18,04,36,-1.10
2012,01,18,04,37,-1.10
2012,01,18,04,38,-1.10
2012,01,18,04,39,-1.20
2012,01,18,04,40,-1.20
2012,01,18,04,41,-1.20
2012,01,18,04,42,-1.20
2012,01,18,04,43,-1.20
2012,01,18,04,44,-1.20
2012,01,18,04,45,-1.20
2012,01,18,04,46,-1.20
2012,01,18,04,47,-1.20
2012,01,18,04,48,-1.20
2012,01,18,04,49,-1.20
2012,01,18,04,50,-1.20
2012,01,18,04,51,-1.20
2012,01,18,04,52,-1.20
2012,01,18,04,53,-1.20
2012,01,18,04,54,-1.20
2012,01,18,04,55,-1.20
2012,01,18,04,56,-1.20
2012,01,18,04,57,-1.20
2012,01,18,04,58,-1.20
2012,01,18,04,59,-1.20
2012,01,18,05,00,-1.20
2012,01,18,05,01,-1.20
2012,01,18,05,02,-1.20
2012,01,18,05,03,-1.20
2012,01,18,05,04,-1.20
2012,01,18,05,05,-1.20
2012,01,18,05,06,-1.20
2012,01,18,05,07,-1.20
2012,01,18,05,08,-1.20
2012,01,18,05,09,-1.20
2012,01,18,05,10,-1.20
2012,01,18,05,11,-1.30
2012,01,18,05,12,-1.30
2012,01,18,05,13,-1.30
2012,01,18,05,14,-1.30
2012,01,18,05,15,-1.30
2012,01,18,05,16,-1.30
2012,01,18,05,17,-1.30
2012,01,18,05,18,-1.30
2012,01,18,05,19,-1.30
2012,01,18,05,20,-1.30
2012,01,18,05,21,-1.30
2012,01,18,05,22,-1.40
2012,01,18,05,23,-1.40
2012,01,18,05,24,-1.40
2012,01,18,05,25,-1.40
2012,01,18,05,26,-1.40
2012,01,18,05,27,-1.40
2012,01,18,05,28,-1.40
2012,01,18,05,29,-1.40
2012,01,18,05,30,-1.40
2012,01,18,05,31,-1.40
2012,01,18,05,32,-1.40
2012,01,18,05,33,-1.40
2012,01,18,05,34,-1.40
2012,01,18,05,35,-1.40
2012,01,18,05,36,-1.40
2012,01,18,05,37,-1.40
2012,01,18,05,38,-1.40
2012,01,18,05,39,-1.40
2012,01,18,05,40,-1.40
2012,01,18,05,41,-1.40
2012,01,18,05,42,-1.50
2012,01,18,05,43,-1.50
2012,01,18,05,44,-1.50
2012,01,18,05,45,-1.50
2012,01,18,05,46,-1.50
2012,01,18,05,47,-1.60
2012,01,18,05,48,-1.60
2012,01,18,05,49,-1.60
2012,01,18,05,50,-1.60
2012,01,18,05,51,-1.60
2012,01,18,05,52,-1.60
2012,01,18,05,53,-1.60
2012,01,18,05,54,-1.50
2012,01,18,05,55,-1.50
2012,01,18,05,56,-1.50
2012,01,18,05,57,-1.50
2012,01,18,05,58,-1.50
2012,01,18,05,59,-1.50
2012,01,18,06,00,-1.60
2012,01,18,06,01,-1.60
2012,01,18,06,02,-1.60
2012,01,18,06,03,-1.70
2012,01,18,06,04,-1.70
2012,01,18,06,05,-1.60
2012,01,18,06,06,-1.70
2012,01,18,06,07,-1.70
2012,01,18,06,08,-1.70
2012,01,18,06,09,-1.70
2012,01,18,06,10,-1.70
2012,01,18,06,11,-1.60
2012,01,18,06,12,-1.60
2012,01,18,06,13,-1.60
2012,01,18,06,14,-1.60
2012,01,18,06,15,-1.60
2012,01,18,06,16,-1.60
2012,01,18,06,17,-1.60
2012,01,18,06,18,-1.60
2012,01,18,06,19,-1.60
2012,01,18,06,20,-1.70
2012,01,18,06,21,-1.70
2012,01,18,06,22,-1.70
2012,01,18,06,23,-1.70
2012,01,18,06,24,-1.70
2012,01,18,06,25,-1.70
2012,01,18,06,26,-1.70
2012,01,18,06,27,-1.70
2012,01,18,06,28,-1.80
2012,01,18,06,29,-1.80
2012,01,18,06,30,-1.80
2012,01,18,06,31,-1.80
2012,01,18,06,32,-1.80
2012,01,18,06,33,-1.80
2012,01,18,06,34,-1.90
2012,01,18,06,35,-1.90
2012,01,18,06,36,-1.90
2012,01,18,06,37,-1.90
2012,01,18,06,38,-2.00
2012,01,18,06,39,-2.00
2012,01,18,06,40,-2.00
2012,01,18,06,41,-2.10
2012,01,18,06,42,-2.10
2012,01,18,06,43,-2.10
2012,01,18,06,44,-2.10
2012,01,18,06,45,-2.10
2012,01,18,06,46,-2.10
2012,01,18,06,47,-2.10
2012,01,18,06,48,-2.10
2012,01,18,06,49,-2.10
2012,01,18,06,50,-2.10
2012,01,18,06,51,-2.10
2012,01,18,06,52,-2.10
2012,01,18,06,53,-2.10
2012,01,18,06,54,-2.10
2012,01,18,06,55,-2.10
2012,01,18,06,56,-2.10
2012,01,18,06,57,-2.10
2012,01,18,06,58,-2.10
2012,01,18,06,59,-2.10
2012,01,18,07,00,-2.10
2012,01,18,07,01,-2.20
2012,01,18,07,02,-2.20
2012,01,18,07,03,-2.20
2012,01,18,07,04,-2.20
2012,01,18,07,05,-2.20
2012,01,18,07,06,-2.20
2012,01,18,07,07,-2.20
2012,01,18,07,08,-2.20
2012,01,18,07,09,-2.20
2012,01,18,07,10,-2.20
2012,01,18,07,11,-2.20
2012,01,18,07,12,-2.20
2012,01,18,07,13,-2.20
2012,01,18,07,14,-2.20
2012,01,18,07,15,-2.20
2012,01,18,07,16,-2.20
2012,01,18,07,17,-2.20
2012,01,18,07,18,-2.20
2012,01,18,07,19,-2.20
2012,01,18,07,20,-2.20
2012,01,18,07,21,-2.20
2012,01,18,07,22,-2.20
2012,01,18,07,23,-2.20
2012,01,18,07,24,-2.20
2012,01,18,07,25,-2.20
2012,01,18,07,26,-2.20
2012,01,18,07,27,-2.20
2012,01,18,07,28,-2.20
2012,01,18,07,29,-2.20
2012,01,18,07,30,-2.20
2012,01,18,07,31,-2.20
2012,01,18,07,32,-2.20
2012,01,18,07,33,-2.20
2012,01,18,07,34,-2.20
2012,01,18,07,35,-2.20
2012,01,18,07,36,-2.20
2012,01,18,07,37,-2.20
2012,01,18,07,38,-2.20
2012,01,18,07,39,-2.20
2012,01,18,07,40,-2.20
2012,01,18,07,41,-2.20
2012,01,18,07,42,-2.20
2012,01,18,07,43,-2.20
2012,01,18,07,44,-2.20
2012,01,18,07,45,-2.20
2012,01,18,07,46,-2.20
2012,01,18,07,47,-2.20
2012,01,18,07,48,-2.30
2012,01,18,07,49,-2.30
2012,01,18,07,50,-2.30
2012,01,18,07,51,-2.30
2012,01,18,07,52,-2.30
2012,01,18,07,53,-2.40
2012,01,18,07,54,-2.40
2012,01,18,07,55,-2.50
2012,01,18,07,56,-2.50
2012,01,18,07,57,-2.60
2012,01,18,07,58,-2.60
2012,01,18,07,59,-2.70
2012,01,18,08,00,-2.70
2012,01,18,08,01,-2.80
2012,01,18,08,02,-2.80
2012,01,18,08,03,-2.90
2012,01,18,08,04,-3.00
2012,01,18,08,05,-3.10
2012,01,18,08,06,-3.20
2012,01,18,08,07,-3.20
2012,01,18,08,08,-3.30
2012,01,18,08,09,-3.40
2012,01,18,08,10,-3.40
2012,01,18,08,11,-3.50
2012,01,18,08,12,-3.50
2012,01,18,08,13,-3.60
2012,01,18,08,14,-3.60
2012,01,18,08,15,-3.60
2012,01,18,08,16,-3.70
2012,01,18,08,17,-3.70
2012,01,18,08,18,-3.70
2012,01,18,08,19,-3.70
2012,01,18,08,20,-3.70
2012,01,18,08,21,-3.80
2012,01,18,08,22,-3.80
2012,01,18,08,23,-3.80
2012,01,18,08,24,-3.90
2012,01,18,08,25,-3.90
2012,01,18,08,26,-3.90
2012,01,18,08,27,-3.90
2012,01,18,08,28,-4.00
2012,01,18,08,29,-4.00
2012,01,18,08,30,-4.10
2012,01,18,08,31,-4.10
2012,01,18,08,32,-4.20
2012,01,18,08,33,-4.20
2012,01,18,08,34,-4.30
2012,01,18,08,35,-4.30
2012,01,18,08,36,-4.30
2012,01,18,08,37,-4.30
2012,01,18,08,38,-4.30
2012,01,18,08,39,-4.30
2012,01,18,08,40,-4.30
2012,01,18,08,41,-4.30
2012,01,18,08,42,-4.40
2012,01,18,08,43,-4.40
2012,01,18,08,44,-4.40
2012,01,18,08,45,-4.40
2012,01,18,08,46,-4.40
2012,01,18,08,47,-4.40
2012,01,18,08,48,-4.40
2012,01,18,08,49,-4.40
2012,01,18,08,50,-4.50
2012,01,18,08,51,-4.50
2012,01,18,08,52,-4.60
2012,01,18,08,53,-4.60
2012,01,18,08,54,-4.60
2012,01,18,08,55,-4.60
2012,01,18,08,56,-4.60
2012,01,18,08,57,-4.60
2012,01,18,08,58,-4.60
2012,01,18,08,59,-4.60
2012,01,18,09,00,-4.70
2012,01,18,09,01,-4.70
2012,01,18,09,02,-4.70
2012,01,18,09,03,-4.70
2012,01,18,09,04,-4.70
2012,01,18,09,05,-4.70
2012,01,18,09,06,-4.70
2012,01,18,09,07,-4.70
2012,01,18,09,08,-4.70
2012,01,18,09,09,-4.80
2012,01,18,09,10,-4.80
2012,01,18,09,11,-4.80
2012,01,18,09,12,-4.80
2012,01,18,09,13,-4.80
2012,01,18,09,14,-4.80
2012,01,18,09,15,-4.80
2012,01,18,09,16,-4.80
2012,01,18,09,17,-4.90
2012,01,18,09,18,-4.90
2012,01,18,09,19,-4.90
2012,01,18,09,20,-5.00
2012,01,18,09,21,-5.00
2012,01,18,09,22,-5.00
2012,01,18,09,23,-5.00
2012,01,18,09,24,-5.00
2012,01,18,09,25,-5.00
2012,01,18,09,26,-5.00
2012,01,18,09,27,-5.00
2012,01,18,09,28,-5.00
2012,01,18,09,29,-5.00
2012,01,18,09,30,-5.00
2012,01,18,09,31,-5.00
2012,01,18,09,32,-5.00
2012,01,18,09,33,-5.10
2012,01,18,09,34,-5.10
2012,01,18,09,35,-5.10
2012,01,18,09,36,-5.10
2012,01,18,09,37,-5.20
2012,01,18,09,38,-5.20
2012,01,18,09,39,-5.20
2012,01,18,09,40,-5.30
2012,01,18,09,41,-5.30
2012,01,18,09,42,-5.30
2012,01,18,09,43,-5.30
2012,01,18,09,44,-5.30
2012,01,18,09,45,-5.30
2012,01,18,09,46,-5.20
2012,01,18,09,47,-5.30
2012,01,18,09,48,-5.30
2012,01,18,09,49,-5.30
2012,01,18,09,50,-5.30
2012,01,18,09,51,-5.30
2012,01,18,09,52,-5.30
2012,01,18,09,53,-5.30
2012,01,18,09,54,-5.30
2012,01,18,09,55,-5.30
2012,01,18,09,56,-5.30
2012,01,18,09,57,-5.30
2012,01,18,09,58,-5.20
2012,01,18,09,59,-5.20
2012,01,18,10,00,-5.20
2012,01,18,10,01,-5.20
2012,01,18,10,02,-5.20
2012,01,18,10,03,-5.20
2012,01,18,10,04,-5.20
2012,01,18,10,05,-5.20
2012,01,18,10,06,-5.20
2012,01,18,10,07,-5.20
2012,01,18,10,08,-5.20
2012,01,18,10,09,-5.20
2012,01,18,10,10,-5.20
2012,01,18,10,11,-5.20
2012,01,18,10,12,-5.20
2012,01,18,10,13,-5.30
2012,01,18,10,14,-5.20
2012,01,18,10,15,-5.20
2012,01,18,10,16,-5.20
2012,01,18,10,17,-5.20
2012,01,18,10,18,-5.20
2012,01,18,10,19,-5.20
2012,01,18,10,20,-5.20
2012,01,18,10,21,-5.20
2012,01,18,10,22,-5.20
2012,01,18,10,23,-5.20
2012,01,18,10,24,-5.20
2012,01,18,10,25,-5.20
2012,01,18,10,26,-5.20
2012,01,18,10,27,-5.20
2012,01,18,10,28,-5.20
2012,01,18,10,29,-5.20
2012,01,18,10,30,-5.20
2012,01,18,10,31,-5.20
2012,01,18,10,32,-5.20
2012,01,18,10,33,-5.20
2012,01,18,10,34,-5.20
2012,01,18,10,35,-5.20
2012,01,18,10,36,-5.20
2012,01,18,10,37,-5.10
2012,01,18,10,38,-5.10
2012,01,18,10,39,-5.00
2012,01,18,10,40,-5.00
2012,01,18,10,41,-5.00
2012,01,18,10,42,-4.90
2012,01,18,10,43,-4.90
2012,01,18,10,44,-4.90
2012,01,18,10,45,-4.90
2012,01,18,10,46,-4.90
2012,01,18,10,47,-4.90
2012,01,18,10,48,-4.90
2012,01,18,10,49,-4.90
2012,01,18,10,50,-4.90
2012,01,18,10,51,-4.90
2012,01,18,10,52,-4.90
2012,01,18,10,53,-4.90
2012,01,18,10,54,-4.90
2012,01,18,10,55,-4.90
2012,01,18,10,56,-4.90
2012,01,18,10,57,-4.90
2012,01,18,10,58,-4.90
2012,01,18,10,59,-4.90
2012,01,18,11,00,-5.00
2012,01,18,11,01,-5.00
2012,01,18,11,02,-5.00
2012,01,18,11,03,-5.10
2012,01,18,11,04,-5.10
2012,01,18,11,05,-5.00
2012,01,18,11,06,-5.10
2012,01,18,11,07,-5.10
2012,01,18,11,08,-5.00
2012,01,18,11,09,-5.10
2012,01,18,11,10,-5.10
2012,01,18,11,11,-5.10
2012,01,18,11,12,-5.10
2012,01,18,11,13,-5.10
2012,01,18,11,14,-5.10
2012,01,18,11,15,-5.10
2012,01,18,11,16,-5.00
2012,01,18,11,17,-5.00
2012,01,18,11,18,-5.00
2012,01,18,11,19,-4.90
2012,01,18,11,20,-4.90
2012,01,18,11,21,-4.90
2012,01,18,11,22,-4.90
2012,01,18,11,23,-4.90
2012,01,18,11,24,-4.90
2012,01,18,11,25,-4.80
2012,01,18,11,26,-4.80
2012,01,18,11,27,-4.80
2012,01,18,11,28,-4.80
2012,01,18,11,29,-4.80
2012,01,18,11,30,-4.80
2012,01,18,11,31,-4.80
2012,01,18,11,32,-4.80
2012,01,18,11,33,-4.80
2012,01,18,11,34,-4.80
2012,01,18,11,35,-4.80
2012,01,18,11,36,-4.80
2012,01,18,11,37,-4.80
2012,01,18,11,38,-4.80
2012,01,18,11,39,-4.80
2012,01,18,11,40,-4.80
2012,01,18,11,41,-4.80
2012,01,18,11,42,-4.80
2012,01,18,11,43,-4.80
2012,01,18,11,44,-4.80
2012,01,18,11,45,-4.80
2012,01,18,11,46,-4.70
2012,01,18,11,47,-4.70
2012,01,18,11,48,-4.70
2012,01,18,11,49,-4.70
2012,01,18,11,50,-4.70
2012,01,18,11,51,-4.60
2012,01,18,11,52,-4.60
2012,01,18,11,53,-4.60
2012,01,18,11,54,-4.70
2012,01,18,11,55,-4.70
2012,01,18,11,56,-4.70
2012,01,18,11,57,-4.70
2012,01,18,11,58,-4.70
2012,01,18,11,59,-4.70
2012,01,18,12,00,-4.70
2012,01,18,12,01,-4.60
2012,01,18,12,02,-4.60
2012,01,18,12,03,-4.60
2012,01,18,12,04,-4.50
2012,01,18,12,05,-4.50
2012,01,18,12,06,-4.40
2012,01,18,12,07,-4.40
2012,01,18,12,08,-4.40
2012,01,18,12,09,-4.40
2012,01,18,12,10,-4.30
2012,01,18,12,11,-4.30
2012,01,18,12,12,-4.30
2012,01,18,12,13,-4.30
2012,01,18,12,14,-4.40
2012,01,18,12,15,-4.30
2012,01,18,12,16,-4.30
2012,01,18,12,17,-4.40
2012,01,18,12,18,-4.30
2012,01,18,12,19,-4.30
2012,01,18,12,20,-4.30
2012,01,18,12,21,-4.30
2012,01,18,12,22,-4.30
2012,01,18,12,23,-4.30
2012,01,18,12,24,-4.30
2012,01,18,12,25,-4.30
2012,01,18,12,26,-4.20
2012,01,18,12,27,-4.20
2012,01,18,12,28,-4.20
2012,01,18,12,29,-4.20
2012,01,18,12,30,-4.10
2012,01,18,12,31,-4.10
2012,01,18,12,32,-4.10
2012,01,18,12,33,-4.10
2012,01,18,12,34,-4.10
2012,01,18,12,35,-4.20
2012,01,18,12,36,-4.20
2012,01,18,12,37,-4.20
2012,01,18,12,38,-4.20
2012,01,18,12,39,-4.20
2012,01,18,12,40,-4.20
2012,01,18,12,41,-4.20
2012,01,18,12,42,-4.20
2012,01,18,12,43,-4.20
2012,01,18,12,44,-4.20
2012,01,18,12,45,-4.20
2012,01,18,12,46,-4.20
2012,01,18,12,47,-4.20
2012,01,18,12,48,-4.20
2012,01,18,12,49,-4.20
2012,01,18,12,50,-4.20
2012,01,18,12,51,-4.20
2012,01,18,12,52,-4.20
2012,01,18,12,53,-4.20
2012,01,18,12,54,-4.20
2012,01,18,12,55,-4.20
2012,01,18,12,56,-4.20
2012,01,18,12,57,-4.20
2012,01,18,12,58,-4.20
2012,01,18,12,59,-4.20
2012,01,18,13,00,-4.20
2012,01,18,13,01,-4.20
2012,01,18,13,02,-4.20
2012,01,18,13,03,-4.20
2012,01,18,13,04,-4.20
2012,01,18,13,05,-4.20
2012,01,18,13,06,-4.20
2012,01,18,13,07,-4.10
2012,01,18,13,08,-4.10
2012,01,18,13,09,-4.10
2012,01,18,13,10,-4.10
2012,01,18,13,11,-4.10
2012,01,18,13,12,-4.10
2012,01,18,13,13,-4.10
2012,01,18,13,14,-4.10
2012,01,18,13,15,-4.10
2012,01,18,13,16,-4.10
2012,01,18,13,17,-4.20
2012,01,18,13,18,-4.20
2012,01,18,13,19,-4.10
2012,01,18,13,20,-4.10
2012,01,18,13,21,-4.10
2012,01,18,13,22,-4.10
2012,01,18,13,23,-4.10
2012,01,18,13,24,-4.10
2012,01,18,13,25,-4.10
2012,01,18,13,26,-4.10
2012,01,18,13,27,-4.10
2012,01,18,13,28,-4.10
2012,01,18,13,29,-4.10
2012,01,18,13,30,-4.10
2012,01,18,13,31,-4.00
2012,01,18,13,32,-4.00
2012,01,18,13,33,-4.00
2012,01,18,13,34,-4.00
2012,01,18,13,35,-4.00
2012,01,18,13,36,-4.00
2012,01,18,13,37,-4.00
2012,01,18,13,38,-4.00
2012,01,18,13,39,-4.10
2012,01,18,13,40,-4.10
2012,01,18,13,41,-4.10
2012,01,18,13,42,-4.10
2012,01,18,13,43,-4.10
2012,01,18,13,44,-4.10
2012,01,18,13,45,-4.10
2012,01,18,13,46,-4.00
2012,01,18,13,47,-4.00
2012,01,18,13,48,-4.00
2012,01,18,13,49,-4.00
2012,01,18,13,50,-4.00
2012,01,18,13,51,-4.00
2012,01,18,13,52,-4.00
2012,01,18,13,53,-3.90
2012,01,18,13,54,-3.90
2012,01,18,13,55,-3.90
2012,01,18,13,56,-3.90
2012,01,18,13,57,-3.90
2012,01,18,13,58,-3.90
2012,01,18,13,59,-3.90
2012,01,18,14,00,-3.90
2012,01,18,14,01,-3.90
2012,01,18,14,02,-3.90
2012,01,18,14,03,-3.90
2012,01,18,14,04,-3.90
2012,01,18,14,05,-3.90
2012,01,18,14,06,-4.00
2012,01,18,14,07,-4.00
2012,01,18,14,08,-4.00
2012,01,18,14,09,-3.90
2012,01,18,14,10,-3.90
2012,01,18,14,11,-3.90
2012,01,18,14,12,-3.90
2012,01,18,14,13,-3.80
2012,01,18,14,14,-3.80
2012,01,18,14,15,-3.90
2012,01,18,14,16,-3.90
2012,01,18,14,17,-3.90
2012,01,18,14,18,-4.00
2012,01,18,14,19,-4.00
2012,01,18,14,20,-4.00
2012,01,18,14,21,-4.00
2012,01,18,14,22,-4.10
2012,01,18,14,23,-4.10
2012,01,18,14,24,-4.10
2012,01,18,14,25,-4.10
2012,01,18,14,26,-4.10
2012,01,18,14,27,-4.10
2012,01,18,14,28,-4.20
2012,01,18,14,29,-4.20
2012,01,18,14,30,-4.20
2012,01,18,14,31,-4.20
2012,01,18,14,32,-4.20
2012,01,18,14,33,-4.20
2012,01,18,14,34,-4.20
2012,01,18,14,35,-4.20
2012,01,18,14,36,-4.20
2012,01,18,14,37,-4.20
2012,01,18,14,38,-4.10
2012,01,18,14,39,-4.10
2012,01,18,14,40,-4.10
2012,01,18,14,41,-4.10
2012,01,18,14,42,-4.10
2012,01,18,14,43,-4.10
2012,01,18,14,44,-4.10
2012,01,18,14,45,-4.10
2012,01,18,14,46,-4.10
2012,01,18,14,47,-4.10
2012,01,18,14,48,-4.10
2012,01,18,14,49,-4.10
2012,01,18,14,50,-4.10
2012,01,18,14,51,-4.10
2012,01,18,14,52,-4.10
2012,01,18,14,53,-4.10
2012,01,18,14,54,-4.00
2012,01,18,14,55,-4.00
2012,01,18,14,56,-4.00
2012,01,18,14,57,-4.00
2012,01,18,14,58,-4.00
2012,01,18,14,59,-4.00
2012,01,18,15,00,-4.00
2012,01,18,15,01,-4.00
2012,01,18,15,02,-4.00
2012,01,18,15,03,-4.00
2012,01,18,15,04,-4.00
2012,01,18,15,05,-4.00
2012,01,18,15,06,-4.00
2012,01,18,15,07,-4.00
2012,01,18,15,08,-3.90
2012,01,18,15,09,-3.90
2012,01,18,15,10,-3.90
2012,01,18,15,11,-3.90
2012,01,18,15,12,-3.90
2012,01,18,15,13,-3.90
2012,01,18,15,14,-3.90
2012,01,18,15,15,-3.90
2012,01,18,15,16,-3.90
2012,01,18,15,17,-3.90
2012,01,18,15,18,-3.90
2012,01,18,15,19,-4.00
2012,01,18,15,20,-4.00
2012,01,18,15,21,-4.00
2012,01,18,15,22,-4.00
2012,01,18,15,23,-4.00
2012,01,18,15,24,-4.00
2012,01,18,15,25,-4.00
2012,01,18,15,26,-4.00
2012,01,18,15,27,-4.10
2012,01,18,15,28,-4.00
2012,01,18,15,29,-4.00
2012,01,18,15,30,-4.00
2012,01,18,15,31,-4.00
2012,01,18,15,32,-3.90
2012,01,18,15,33,-3.90
2012,01,18,15,34,-3.90
2012,01,18,15,35,-3.90
2012,01,18,15,36,-3.90
2012,01,18,15,37,-3.90
2012,01,18,15,38,-3.90
2012,01,18,15,39,-3.90
2012,01,18,15,40,-3.90
2012,01,18,15,41,-3.90
2012,01,18,15,42,-3.90
2012,01,18,15,43,-4.00
2012,01,18,15,44,-4.00
2012,01,18,15,45,-4.00
2012,01,18,15,46,-4.00
2012,01,18,15,47,-4.00
2012,01,18,15,48,-4.00
2012,01,18,15,49,-4.00
2012,01,18,15,50,-4.00
2012,01,18,15,51,-4.00
2012,01,18,15,52,-4.00
2012,01,18,15,53,-4.00
2012,01,18,15,54,-4.00
2012,01,18,15,55,-3.90
2012,01,18,15,56,-3.90
2012,01,18,15,57,-3.90
2012,01,18,15,58,-3.90
2012,01,18,15,59,-3.90
2012,01,18,16,00,-3.90
2012,01,18,16,01,-3.90
2012,01,18,16,02,-3.90
2012,01,18,16,03,-3.90
2012,01,18,16,04,-3.90
2012,01,18,16,05,-3.90
2012,01,18,16,06,-3.90
2012,01,18,16,07,-3.90
2012,01,18,16,08,-3.90
2012,01,18,16,09,-3.90
2012,01,18,16,10,-3.90
2012,01,18,16,11,-3.90
2012,01,18,16,12,-3.90
2012,01,18,16,13,-3.90
2012,01,18,16,14,-3.90
2012,01,18,16,15,-3.90
2012,01,18,16,16,-3.90
2012,01,18,16,17,-3.90
2012,01,18,16,18,-3.90
2012,01,18,16,19,-3.90
2012,01,18,16,20,-3.90
2012,01,18,16,21,-3.90
2012,01,18,16,22,-3.90
2012,01,18,16,23,-3.90
2012,01,18,16,24,-3.90
2012,01,18,16,25,-3.90
2012,01,18,16,26,-3.90
2012,01,18,16,27,-4.00
2012,01,18,16,28,-4.00
2012,01,18,16,29,-4.00
2012,01,18,16,30,-4.00
2012,01,18,16,31,-4.00
2012,01,18,16,32,-4.00
2012,01,18,16,33,-4.00
2012,01,18,16,34,-3.90
2012,01,18,16,35,-3.90
2012,01,18,16,36,-3.90
2012,01,18,16,37,-3.90
2012,01,18,16,38,-3.90
2012,01,18,16,39,-3.90
2012,01,18,16,40,-3.90
2012,01,18,16,41,-3.90
2012,01,18,16,42,-3.90
2012,01,18,16,43,-3.90
2012,01,18,16,44,-3.90
2012,01,18,16,45,-3.90
2012,01,18,16,46,-3.90
2012,01,18,16,47,-3.90
2012,01,18,16,48,-3.90
2012,01,18,16,49,-3.90
2012,01,18,16,50,-3.90
2012,01,18,16,51,-3.80
2012,01,18,16,52,-3.80
2012,01,18,16,53,-3.80
2012,01,18,16,54,-3.80
2012,01,18,16,55,-3.80
2012,01,18,16,56,-3.80
2012,01,18,16,57,-3.80
2012,01,18,16,58,-3.80
2012,01,18,16,59,-3.90
2012,01,18,17,00,-3.90
2012,01,18,17,01,-3.90
2012,01,18,17,02,-3.90
2012,01,18,17,03,-3.80
2012,01,18,17,04,-3.90
2012,01,18,17,05,-3.90
2012,01,18,17,06,-3.80
2012,01,18,17,07,-3.80
2012,01,18,17,08,-3.80
2012,01,18,17,09,-3.80
2012,01,18,17,10,-3.80
2012,01,18,17,11,-3.80
2012,01,18,17,12,-3.80
2012,01,18,17,13,-3.80
2012,01,18,17,14,-3.80
2012,01,18,17,15,-3.80
2012,01,18,17,16,-3.80
2012,01,18,17,17,-3.80
2012,01,18,17,18,-3.80
2012,01,18,17,19,-3.80